Rogers, AR

1:49 AM CDT on September 27, 2016 (GMT -0500)
Rogers Municipal-Carter

Weather History for KROG - February, 2013

Change the Weather History Date:

Monday, February 4, 2013

  Actual Average Record
Temperature  
Mean Temperature 50 °F -  
Max Temperature 57 °F 45 °F 75 °F (2008)
Min Temperature 42 °F 28 °F 12 °F (2009)
Degree Days  
Heating Degree Days 15    
Moisture  
Dew Point 37 °F    
Average Humidity 64    
Maximum Humidity 82    
Minimum Humidity 42    
Precipitation  
Precipitation 0.16 in - - ()
Sea Level Pressure  
Sea Level Pressure 29.89 in    
Wind  
Wind Speed 11 mph (SSW)    
Max Wind Speed 22 mph    
Max Gust Speed 29 mph    
Visibility 10 miles    
Events Rain , Thunderstorm    
Averages and records for this station are not official NWS values.
T = Trace of Precipitation, MM = Missing Value Source: NWS Daily Summary

Daily Weather History Graph

Daily Weather History Graph

Search for Another Location

Airport or City:

Trip Planner

Search our weather history database for the weather conditions in past years. The results will help you decide how hot, cold, wet, or windy it might be!

Date:

Astronomy

Feb. 04, 2013 Rise Set
Actual Time 7:14 AM CST 5:46 PM CST
Civil Twilight 6:48 AM CST 6:13 PM CST
Nautical Twilight 6:17 AM CST 6:43 PM CST
Astronomical Twilight 5:47 AM CST 7:14 PM CST
Moon 1:49 AM CST (2/4) 12:13 PM CST (2/4)
Length of Visible Light 11h 25m
Length of Day
10h 31m
Last Quarter, 37% of the Moon is Illuminated
Feb 4
Last Quarter
Feb 10
New
Feb 17
First Quarter
Feb 25
Full
Mar 4
Last Quarter

Hourly Weather History & Observations

Time (CST) Temp. Windchill Dew Point Humidity Pressure Visibility Wind Dir Wind Speed Gust Speed Precip Events Conditions
12:57 AM 46.0 °F 41.4 °F 24.1 °F 42% 29.97 in 10.0 mi SSE 9.2 mph - N/A   Clear
1:57 AM 46.0 °F 42.5 °F 24.1 °F 42% 29.96 in 10.0 mi SSE 6.9 mph - N/A   Overcast
2:57 AM 46.9 °F - 26.1 °F 44% 29.94 in 10.0 mi SSE 5.8 mph - N/A   Mostly Cloudy
4:57 AM 46.4 °F 39.2 °F 35.6 °F 66% 29.89 in 10.0 mi South 18.4 mph - 0.01 in Rain , Thunderstorm Light Thunderstorms and Rain
4:59 AM 46.0 °F 38.0 °F 35.1 °F 66% 29.89 in 10.0 mi South 21.9 mph - 0.02 in Rain , Thunderstorm Thunderstorms and Rain
5:14 AM 46.4 °F 40.1 °F 35.6 °F 66% 29.88 in 10.0 mi SSE 15.0 mph - 0.03 in Rain Light Rain
5:18 AM 46.4 °F 41.1 °F 33.8 °F 62% 29.89 in 10.0 mi SSE 11.5 mph - 0.03 in Rain , Thunderstorm Light Rain
5:50 AM 46.4 °F 39.8 °F 35.6 °F 66% 29.87 in 10.0 mi South 16.1 mph 20.7 mph 0.04 in Rain Light Rain
5:57 AM 46.0 °F 39.3 °F 36.0 °F 68% 29.88 in 10.0 mi South 16.1 mph 21.9 mph 0.04 in Rain Light Rain
6:57 AM 46.0 °F 38.8 °F 37.9 °F 73% 29.88 in 10.0 mi SSW 18.4 mph 28.8 mph 0.02 in Rain Light Rain
7:38 AM 46.4 °F 41.1 °F 37.4 °F 71% 29.89 in 10.0 mi South 11.5 mph 25.3 mph 0.03 in Rain , Thunderstorm Light Rain
7:53 AM 44.6 °F 36.4 °F 39.2 °F 81% 29.89 in 8.0 mi South 20.7 mph 25.3 mph 0.07 in Rain Light Rain
8:57 AM 45.0 °F 39.3 °F 39.9 °F 82% 29.91 in 10.0 mi South 11.5 mph - 0.08 in Rain Light Rain
9:57 AM 45.0 °F 43.5 °F 39.9 °F 82% 29.93 in 10.0 mi SW 3.5 mph - 0.00 in   Overcast
10:57 AM 48.9 °F - 41.0 °F 74% 29.91 in 10.0 mi South 15.0 mph - N/A   Overcast
11:57 AM 53.1 °F - 44.1 °F 71% 29.89 in 10.0 mi SSW 18.4 mph 21.9 mph N/A   Partly Cloudy
12:57 PM 54.0 °F - 44.1 °F 69% 29.87 in 10.0 mi SW 13.8 mph 23.0 mph N/A   Partly Cloudy
1:22 PM 55.4 °F - 44.6 °F 67% 29.86 in 10.0 mi WSW 13.8 mph - N/A   Mostly Cloudy
1:52 PM 55.4 °F - 44.6 °F 67% 29.85 in 10.0 mi WSW 12.7 mph - N/A   Scattered Clouds
1:57 PM 55.0 °F - 44.1 °F 67% 29.85 in 10.0 mi WSW 13.8 mph 17.3 mph N/A   Scattered Clouds
2:09 PM 55.4 °F - 44.6 °F 67% 29.85 in 10.0 mi West 13.8 mph - N/A   Mostly Cloudy
2:41 PM 55.4 °F - 44.6 °F 67% 29.85 in 10.0 mi WSW 6.9 mph - N/A   Scattered Clouds
2:57 PM 57.9 °F - 44.1 °F 60% 29.84 in 10.0 mi WNW 9.2 mph - N/A   Partly Cloudy
3:57 PM 57.9 °F - 42.1 °F 56% 29.84 in 10.0 mi NW 4.6 mph - N/A   Partly Cloudy
4:57 PM 57.9 °F - 37.9 °F 47% 29.85 in 10.0 mi WNW 5.8 mph - N/A   Clear
5:57 PM 55.0 °F - 37.9 °F 53% 29.86 in 10.0 mi Calm Calm - N/A   Clear
7:57 PM 50.0 °F - 35.1 °F 57% 29.92 in 10.0 mi North 5.8 mph - N/A   Clear
8:57 PM 46.9 °F - 34.0 °F 61% 29.94 in 10.0 mi North 3.5 mph - N/A   Clear
9:57 PM 45.0 °F - 33.1 °F 63% 29.96 in 10.0 mi Calm Calm - N/A   Clear
10:57 PM 43.0 °F 40.3 °F 32.0 °F 65% 29.96 in 10.0 mi NE 4.6 mph - N/A   Clear
11:57 PM 42.1 °F - 32.0 °F 67% 29.96 in 10.0 mi Calm Calm - N/A   Clear